Regional Weather Roundup
Issued by NWS Glasgow, MT

Home | Current Version | Previous Version | Text Only | Print | Product List | Glossary On
Versions: 1 2 3 4 5 6 7 8 9 10 11 12 13 14 15 16 17 18 19 20 21 22 23 24 25 26 27 28 29 30 31 32 33 34 35 36 37 38
000
ASUS45 KGGW 231915
RWRGGW
HOURLY WEATHER ROUNDUP FOR NORTHEAST MONTANA
NATIONAL WEATHER SERVICE GLASGOW MONTANA
100 PM MDT THU OCT 23 2014

NOTE: "FAIR" INDICATES FEW OR NO CLOUDS BELOW 12,000 FEET WITH NO
SIGNIFICANT WEATHER AND/OR OBSTRUCTIONS TO VISISBILITY.

NORTHEAST MONTANA


CITY           SKY/WX    TMP DP  RH WIND       PRES   REMARKS
GLASGOW        MOSUNNY   65  37  35 SW6       29.78S
PLENTYWOOD       N/A     59  32  36 SW7         N/A
WOLF POINT     CLOUDY    60  37  42 W6        29.80S
JORDAN           N/A     70  32  24 W18G24    29.80F
WINNETT          N/A     70  32  24 SW6         N/A
SIDNEY         CLOUDY    57  34  41 S10       29.81F
GLENDIVE       CLOUDY    55  30  38 S10       29.86S
MALTA            N/A     68  41  37 SW10        N/A

FORT PECK REPORTS


CITY           SKY/WX    TMP DP  RH WIND       PRES   REMARKS
FORT PECK        N/A     61  46  57 S8          N/A
THE PINES        N/A     67  34  29 SW8         N/A

SOUTHEAST MONTANA


CITY           SKY/WX    TMP DP  RH WIND       PRES   REMARKS
BILLINGS       PTSUNNY   68  28  22 SW12      29.90S
MILES CITY     MOSUNNY   63  32  31 S6        29.86F
BAKER          PTSUNNY   67  27  22 W13       29.88F
LIVINGSTON     MOSUNNY   66  27  23 SW36G44   29.91F

CENTRAL MONTANA


CITY           SKY/WX    TMP DP  RH WIND       PRES   REMARKS
HAVRE          CLOUDY    61  39  44 SW12      29.76F
LEWISTOWN      CLOUDY    64  34  32 W17       29.86S
GREAT FALLS    CLOUDY    58  38  47 SW26G33   29.81F
CUT BANK       PTSUNNY   60  39  45 W12       29.76F
HELENA         CLOUDY    64  36  35 SW9       29.89F
BUTTE          CLOUDY    54  34  46 S5        30.01S
BOZEMAN        PTSUNNY   60  33  36 SW9       29.98F

WESTERN MONTANA


CITY           SKY/WX    TMP DP  RH WIND       PRES   REMARKS
MISSOULA       CLOUDY    59  43  55 SE14      29.89S
KALISPELL      NOT AVBL

NORTH DAKOTA


CITY           SKY/WX    TMP DP  RH WIND       PRES   REMARKS
WILLISTON      PTSUNNY   59  33  37 SW12      29.78F
DICKINSON      PTSUNNY   68  26  20 SW14      29.82F
MINOT          PTSUNNY   66  32  28 SW8       29.78F
BISMARCK       SUNNY     72  33  24 SW10      29.85F

SOUTHERN SASKATCHEWAN


CITY           SKY/WX    TMP DP  RH WIND       PRES   REMARKS
REGINA         PTSUNNY   55  45  67 S8        29.69F
MOOSE JAW      CLOUDY    55  41  58 SW12G18   29.67F
ESTEVAN        PTSUNNY   61  36  39 SW13      29.74F
SWIFT CURRENT  MOSUNNY   57  41  54 SW17G24   29.65F




USA.gov is the U.S. government's official web portal to all federal, state and local government web resources and services.